Showing default

BRO-13, 59107

Orbit data source: Space-Track

BRO-13, 59107 is a payload satellite owned by Unseen Labs (FR) in SSO that was launched on Mon, 04 Mar 2024 UTC via an FALCON 9 launch vehicle from the Air Force Western Test Range (AFWTR). Payload-class satellites include a variety of spacecraft equipped with specific instruments for various scientific and technological missions. These include communications satellites like Starlink; space stations such as the ISS; scientific satellites like the Hubble; Earth observation satellites from companies like Planet Labs, Umbra, and HawkEye 360; GPS; miniature CubeSats for education and research; and military/defense satellites.

Loading next visibility...
Identifier
59107, 2024-043K
Orbit
SSO
Country
Flag of FRFR
Related business
Manufacturer
GOMSpace
Mission
Operational Commercial Sigint
Bus & Motor
CUBESAT 8U, Unknown motor
Mass
15 kg wet, ~15 kg dry
Launch date (UTC)
2024-03-04 (2 years ago)
Launch vehicle
FALCON 9
Launch site
Air Force Western Test Range (AFWTR)
Object type
Payload
Rocket body
Debris
Shape & HBR
Box, 0.2 m
Radar Cross Section
0.100 m², Medium (>0.1 m² and < 1m²)

Expand to show TLE details & history
Last TLE update: 4 hours ago

TLE from 4 hours ago
0 BRO-13
1 59107U 24043K   26125.50126207  .00001992  00000-0  18049-3 0  9990
2 59107  97.8432 256.4026 0010140 135.5346 224.6690 14.96490372118234
Epoch: 2026-05-05T12:01Z
TLE epoch observation values (Epoch: 2026-05-05T12:01:49.042Z)
Latitude
-0.00012°
Longitude
-147.42693°
Altitude
585.817 km
Speed
7.565 km/s
True Right ascension
17h 05m 36s
True Declination
0° 00' 00"
Sunlit
Object was in full shadow at epoch
Visualization orbit readout
Latitude
Unknown
Longitude
Unknown
Altitude
Unknown
Speed
Unknown
Apparent Right ascension
Unknown
Apparent Declination
Unknown
Sunlit
N/A
Visualization observer readout
Local Sidereal Time
00:06:34
Azimuth
Unknown
Elevation
Unknown
Doppler factor
Unknown
Orbital elements
Apogee altitude
581.817 km
Perigee altitude
567.717 km
Semi-major axis
6,952.904 km
Eccentricity
0.00101
Inclination
97.8432°
RAAN
256.4026°
Arg. of periapsis
135.5346°
True anomaly
224.58739°
Mean anomaly
224.669°
Eccentric anomaly
224.62819°
Mean motion
3.74364 °/min
Orbital period
96.16 mins
BSTAR
0.00018049
Loading maneuver chart data...
Computing Atmospheric mass density...
Loading historical data...
Loading historical data...
Loading historical data...
Loading historical data...
Loading historical data...
Loading historical data...
Loading historical data...

Documentation

Showing up to 5 results
|